Accueil
METAR-TAF:

METAR-TAF

Aéroports :

Matagami, Québec, Canada

latitude: 49-46N, longitude: 077-49W, altitude: 281 m

Observation

Le bulletin a été fait il y a 7 minutes, à 21:32 UTC
Vent 8 kt de sud/sud-ouest
Température 6°C
Humidité 100%
Pression 993 hPa
Visibilité: 14.5 km
Nuages épars à une hauteur de 1000 ft
Nuages épars à une hauteur de 1500 ft
Ciel couvert à une hauteur de 2500 ft

METAR: CYNM 192132Z AUTO 21008KT 9SM SCT010 SCT015 OVC025 06/06 A2932 RMK SLP944

Heure: 17:39 (21:39 UTC)


TAF: absent

Observations et prévisions météorologiques de plus de 4000 aéroports (messages METAR et TAF).

Les stations disponibles sont représentées par des disques jaunes et rouges sur la carte.

Passer la souris dessus pour voir le nom de la station.

Cliquer dessus pour voir les observations et prévisions météorologiques.

Pour changer de carte: cliquez sur les boutons verts avec une croix noire pour zoomer, sur le bouton vert avec un tiret pour effectuer un zoom arrière, ou sur les flèches vertes pour les cartes adjacentes.


METAR-TAF: